Theta_e
340 348 353 355 353 352 352 351 352 352 352 350 350 350 350 350 349 349 346 344 342 342 342 341 340 341 343 343 343 345 345 345 345 347 348 347 347 346 345 346 347 345 349
344 348 352 354 354 354 353 352 353 352 352 350 350 350 350 350 348 347 345 345 342 340 341 339 337 336 337 338 340 343 344 344 345 344 347 347 347 345 345 344 345 343 346
344 349 352 352 353 353 353 352 352 353 352 350 350 349 348 349 348 346 345 345 343 341 339 338 335 334 334 335 338 341 342 342 343 343 344 339 340 344 344 343 343 343 343
343 347 349 350 352 351 351 352 352 352 351 348 347 346 350 349 347 345 343 342 342 340 339 337 333 331 330 330 336 338 339 340 341 340 341 340 339 344 343 343 342 340 340
339 346 347 348 350 351 351 350 350 350 350 348 346 347 348 348 346 344 341 338 337 337 336 335 332 329 328 329 331 333 335 336 337 335 333 335 333 340 340 342 341 340 340
337 346 345 348 350 350 350 350 349 348 349 347 346 345 347 347 346 343 340 338 337 336 335 333 329 326 326 327 327 328 329 330 333 327 328 330 328 336 336 338 339 339 339
334 346 346 347 349 349 349 349 349 349 348 348 348 346 346 346 344 342 340 338 337 336 334 331 328 324 324 324 324 324 324 325 318 318 322 323 324 331 332 333 334 335 336
337 342 346 341 341 343 348 348 348 348 347 346 346 346 345 345 345 342 339 338 337 336 334 332 328 323 321 320 320 320 320 323 316 314 318 319 328 328 329 328 329 330 331
326 336 339 343 341 335 338 341 344 346 346 346 345 345 344 344 343 342 340 339 337 335 334 331 328 324 318 316 315 314 317 319 309 312 315 316 326 327 327 327 326 326 327
314 317 319 333 339 340 342 334 338 342 343 343 342 340 338 338 336 336 334 338 337 335 333 331 328 324 318 313 312 313 316 315 304 306 308 313 321 326 327 325 325 325 326
309 309 311 313 321 336 338 336 332 337 338 338 337 334 332 338 334 332 332 335 337 336 333 330 327 323 317 314 313 312 313 302 302 303 305 315 319 323 325 327 326 326 327
304 306 309 310 311 316 332 337 339 342 340 339 339 337 338 338 337 333 327 330 332 332 333 330 326 324 321 313 307 309 301 301 301 301 304 312 315 320 323 325 328 326 326
303 307 310 311 312 312 325 335 337 337 337 338 336 337 336 335 331 331 326 326 328 326 328 325 322 320 319 315 312 307 305 302 300 300 307 310 312 316 319 322 325 328 327
304 308 312 315 316 312 314 335 335 333 330 331 331 332 334 333 331 331 328 328 328 328 328 325 322 319 318 316 313 311 307 304 301 300 303 309 309 312 316 318 323 327 329
305 309 309 314 317 315 316 331 327 326 325 324 324 326 329 329 326 326 326 326 324 326 325 322 320 319 315 315 316 312 309 306 304 303 301 308 308 310 312 314 318 320 325
307 306 310 312 315 316 317 318 318 318 319 317 317 318 321 322 321 320 319 318 318 319 318 316 315 314 313 311 312 311 310 309 308 305 304 303 309 308 309 314 316 317 319
305 307 308 309 311 309 309 312 312 313 314 313 314 314 315 317 316 315 313 312 313 314 313 313 313 312 311 310 309 309 308 309 310 308 306 304 305 308 309 311 311 313 314
304 305 306 307 305 304 304 306 308 309 310 309 309 310 312 312 311 311 312 311 312 312 312 310 308 308 307 306 305 306 307 307 305 306 308 305 303 302 305 309 309 310 311
303 305 304 304 302 301 301 301 302 304 305 305 305 304 305 308 309 307 306 306 306 305 304 306 306 304 301 300 301 302 305 304 302 304 303 301 301 300 299 306 308 308 309
304 304 303 302 301 300 300 300 301 299 299 298 297 298 300 301 302 301 301 300 300 299 298 298 302 302 298 297 300 302 303 302 300 299 300 301 300 301 300 299 299 300 308
304 304 303 302 302 303 302 301 298 295 293 293 294 294 294 295 296 295 294 295 293 292 291 292 296 296 295 294 295 296 301 299 296 298 299 298 299 297 296 298 298 299 300
302 303 304 304 303 304 301 298 294 291 290 290 290 290 291 291 291 291 290 289 289 289 288 288 288 290 289 290 289 293 292 296 293 296 296 292 293 292 292 293 293 291 292
297 300 301 300 298 296 294 293 292 291 289 287 287 287 288 289 289 289 289 288 288 287 286 286 286 286 285 286 286 288 286 284 287 292 288 287 287 287 288 289 291 289 292
293 294 295 296 295 294 293 292 291 289 286 286 285 286 287 287 287 288 287 287 286 286 285 285 286 285 284 282 285 287 284 282 281 282 283 284 286 286 285 287 286 287 292
291 291 291 291 291 292 292 291 289 286 286 286 285 285 285 285 286 286 286 285 285 285 284 284 283 283 283 282 282 282 282 281 281 278 276 279 282 283 284 285 285 287 290
288 288 288 288 289 290 289 289 287 286 285 285 284 283 283 283 284 284 285 284 283 283 283 283 283 282 282 282 281 281 281 279 278 278 276 278 278 280 283 284 285 285 288
Wind_Speed
9 11 11 12 13 12 12 12 12 11 12 13 13 12 11 14 16 15 14 15 15 16 16 16 15 15 15 15 15 14 14 12 11 12 15 18 18 17 18 18 14 12 18
15 12 11 12 12 12 11 11 10 10 11 12 11 11 11 13 15 15 14 14 15 15 16 16 15 15 15 14 13 13 13 11 9 9 10 14 15 16 16 15 14 13 16
13 12 9 11 11 11 11 10 9 9 10 11 11 11 9 13 15 15 13 11 15 15 15 15 16 15 14 13 13 13 12 10 11 11 7 6 9 15 15 14 14 15 16
10 11 10 11 12 12 12 9 8 8 9 10 9 9 10 12 14 13 14 16 16 14 14 15 15 15 15 14 13 13 12 13 14 14 6 8 8 15 15 13 13 15 15
7 10 12 9 11 12 13 9 7 8 8 8 8 8 9 11 12 13 14 15 14 15 14 14 14 14 14 13 13 13 12 13 13 10 8 10 7 13 14 13 13 13 13
5 12 10 10 9 11 12 11 7 7 7 8 7 7 7 10 11 12 13 14 15 15 14 14 14 14 14 13 13 13 13 13 12 8 8 12 9 14 14 13 13 13 12
5 11 7 8 5 10 12 12 10 8 8 7 7 7 7 8 11 13 13 14 14 14 14 14 14 13 13 13 13 13 12 13 7 7 9 10 7 13 13 12 12 12 12
7 6 8 5 4 5 1 7 10 10 8 7 5 7 7 9 11 12 13 13 13 14 13 13 13 13 12 12 12 12 11 11 8 7 9 7 12 11 12 12 12 11 11
9 7 5 4 4 3 1 2 3 8 8 6 4 6 7 9 10 11 10 11 12 12 12 11 11 11 11 12 11 11 10 12 6 5 8 5 11 11 11 11 11 11 10
7 8 7 6 5 5 4 7 5 5 7 6 6 6 7 8 10 9 9 8 9 9 10 10 10 10 10 10 9 8 9 9 7 7 5 5 12 12 11 10 10 10 10
6 7 6 5 5 1 4 4 4 4 6 5 4 5 5 4 6 7 8 8 8 9 9 9 8 6 6 7 7 8 9 4 5 5 3 11 12 12 12 12 10 10 9
6 5 6 5 5 5 2 2 2 4 5 4 4 6 4 2 4 6 6 8 7 9 9 9 6 7 4 3 3 7 3 5 4 4 3 10 11 11 12 12 12 10 9
4 6 7 5 3 3 2 1 1 3 3 5 9 5 5 5 4 4 3 3 2 6 3 4 4 4 6 4 4 3 4 4 3 3 4 8 9 10 10 11 11 11 8
6 6 8 8 6 0 3 3 5 6 6 6 7 9 5 3 4 4 3 3 3 2 4 3 3 4 6 5 5 5 5 3 2 2 2 5 6 9 10 10 11 11 10
6 8 8 7 8 1 1 7 7 7 7 7 6 7 5 5 5 5 6 5 5 5 5 4 4 4 5 6 5 4 4 4 5 3 2 1 5 8 9 9 10 10 11
7 6 5 7 6 8 7 9 7 7 7 8 7 7 8 7 6 6 7 6 6 6 4 5 4 4 3 4 5 6 6 5 5 4 3 3 3 6 10 13 13 12 12
7 5 5 6 7 9 9 9 8 7 7 7 7 9 10 8 9 7 6 6 4 4 5 5 4 3 3 3 4 4 4 4 5 6 5 4 5 7 9 11 15 16 15
7 6 6 7 8 9 8 7 6 6 7 7 8 6 8 9 7 6 5 5 3 3 4 4 3 3 3 2 2 3 2 3 5 5 5 5 5 5 8 17 17 17 15
7 6 6 7 8 9 9 8 8 8 8 7 7 5 7 7 7 6 6 6 6 5 5 4 4 5 5 5 5 4 2 3 4 3 5 7 7 6 4 10 14 16 19
7 6 7 6 8 9 7 7 7 8 8 7 6 6 7 7 8 6 6 8 6 6 6 5 6 5 5 5 5 4 2 4 4 4 6 6 6 8 8 8 6 6 15
8 7 8 8 7 5 4 6 6 6 6 6 6 8 8 7 9 8 7 8 7 8 7 8 4 6 8 10 4 5 5 7 9 5 6 6 8 8 9 7 7 5 8
6 7 7 9 8 4 4 4 5 4 5 6 5 7 9 10 8 9 8 7 7 7 8 8 8 4 4 8 3 2 5 4 8 6 6 8 8 5 6 8 8 10 9
6 6 6 6 7 7 8 8 8 6 5 5 5 5 7 9 9 8 8 7 7 5 6 6 6 7 5 5 10 4 4 2 4 3 6 7 8 5 6 9 7 11 10
7 7 7 7 7 7 8 8 7 6 7 4 4 5 6 7 8 7 8 7 7 5 8 6 6 6 5 5 4 6 6 2 3 5 5 5 11 8 9 6 9 10 7
7 7 7 7 7 7 8 9 9 10 6 5 5 7 7 7 8 7 7 7 8 6 6 7 7 7 5 4 4 3 3 3 4 2 4 8 5 5 5 8 8 6 7
7 7 7 7 6 7 8 9 10 11 9 7 5 5 4 4 5 6 7 7 6 6 6 5 6 7 5 5 4 5 3 2 3 2 3 6 7 5 9 6 7 6 7
Wind_Direction
125 133 139 135 127 117 109 103 97 94 92 93 95 94 93 96 87 83 80 68 65 63 60 57 53 48 46 45 45 46 43 38 39 51 65 64 52 47 44 37 40 42 43
117 136 143 139 134 124 116 109 108 107 107 107 107 102 93 97 92 86 76 79 68 63 57 55 54 49 45 40 41 42 38 21 6 46 82 66 63 52 47 42 41 42 43
124 121 147 138 132 124 119 116 114 114 110 108 102 98 98 104 97 88 81 85 79 66 57 50 48 48 45 41 40 37 31 11 350 358 26 92 65 54 48 45 41 44 41
123 135 137 144 144 138 126 120 121 114 111 108 103 97 95 109 96 91 83 68 64 64 61 53 49 45 40 38 39 33 23 6 348 348 80 58 53 53 42 45 48 43 43
114 143 132 155 153 140 129 125 124 120 116 111 104 99 107 112 105 98 88 78 73 69 63 58 53 51 48 47 42 32 21 4 344 347 62 54 30 33 29 39 42 50 40
128 95 129 131 151 144 135 129 137 132 126 122 117 114 114 118 111 98 90 83 76 74 68 60 54 53 51 47 43 36 22 2 354 34 47 52 37 31 25 24 28 34 34
93 112 123 135 147 152 153 149 155 154 146 139 142 133 123 114 103 102 91 84 78 75 68 61 57 53 53 53 47 38 22 3 354 35 59 48 24 32 32 31 30 26 24
69 75 121 124 73 44 7 165 161 161 158 157 156 140 133 121 116 112 107 103 94 87 77 68 60 54 51 49 45 35 19 9 31 30 65 48 17 30 33 31 28 26 24
25 43 60 118 177 161 15 10 147 162 158 159 151 137 127 119 112 110 110 111 109 107 100 96 84 75 66 53 40 24 10 2 30 30 58 35 13 22 28 27 24 23 22
58 44 22 15 41 351 189 184 126 154 159 157 145 139 145 130 125 121 113 116 119 114 99 82 71 68 71 63 47 20 9 7 30 47 46 22 19 19 22 23 21 21 22
64 61 46 17 0 185 336 95 146 144 158 165 167 164 147 166 151 141 109 123 126 110 92 80 69 64 89 81 53 24 36 10 39 60 57 27 17 15 15 13 15 18 22
39 56 40 16 12 353 325 357 294 185 174 193 199 167 196 143 125 116 116 109 118 97 93 78 41 2 349 60 31 37 33 7 28 53 52 38 22 19 18 13 6 10 8
20 39 30 6 347 303 196 155 59 39 32 57 40 43 78 91 111 98 93 80 61 80 83 83 34 26 28 38 32 40 26 27 37 41 53 45 22 17 17 16 11 358 359
27 33 34 3 339 295 312 150 76 68 68 62 48 30 52 57 62 84 83 67 49 45 70 83 76 36 9 22 41 13 24 20 23 26 109 70 25 8 8 8 8 5 358
34 40 22 358 334 134 328 70 71 71 72 64 58 53 76 83 73 72 65 61 48 33 37 60 48 34 29 360 354 34 9 359 351 357 355 44 27 4 0 2 4 2 357
63 45 26 15 27 57 69 78 80 73 73 70 59 50 51 65 67 63 59 48 43 39 37 44 41 23 20 11 355 2 354 343 343 347 -0 353 348 12 7 0 360 355 351
80 64 49 46 53 62 67 75 78 80 86 84 79 64 59 69 71 74 75 70 60 53 63 59 46 47 38 12 350 339 336 329 351 357 2 14 20 17 0 15 3 353 346
89 77 68 74 72 66 70 74 83 80 79 77 65 65 68 70 77 71 75 84 98 74 67 67 41 47 42 17 339 317 311 4 14 354 0 29 31 25 13 12 4 357 357
105 107 95 90 85 83 72 69 64 69 71 67 63 52 46 54 64 70 64 50 46 46 32 28 46 57 25 353 325 303 304 66 49 14 24 54 41 25 20 13 7 9 359
110 107 105 96 97 98 96 91 77 67 60 50 48 48 44 47 54 56 63 57 47 44 29 16 40 43 26 334 314 335 348 88 48 36 52 56 46 26 17 11 2 348 352
124 122 123 123 135 130 128 106 87 86 72 60 55 47 46 49 52 52 52 62 51 58 42 34 30 46 22 358 16 346 38 70 24 20 45 40 45 28 18 4 346 357 344
130 134 145 154 166 125 80 78 88 96 76 75 60 57 53 50 53 67 60 51 53 55 44 37 38 36 29 27 24 343 15 335 24 20 50 25 24 14 2 357 345 358 341
133 128 112 99 93 93 97 96 98 90 77 61 45 53 45 49 48 53 58 62 59 51 52 35 35 39 41 8 37 77 32 335 330 340 27 27 15 4 355 334 357 343 327
131 115 111 114 117 122 128 129 127 110 106 85 91 78 67 50 49 50 54 55 61 51 49 39 32 41 46 34 11 19 47 43 360 329 346 343 6 347 340 343 341 321 316
139 138 133 125 127 128 121 112 113 113 114 117 108 102 88 70 56 53 56 56 56 53 53 50 35 29 34 57 56 4 16 352 59 332 302 326 330 343 327 330 316 308 321
130 135 136 130 124 117 114 117 120 125 129 123 121 105 99 91 83 68 64 59 59 60 62 58 59 49 44 49 35 39 49 38 353 18 313 315 306 312 314 308 316 324 332